Date String (YYYY-MM-DD hh:mm:ss) UTC,Instrument flags,Ambient pressure (hPa),Sample flow (lpm),Bypass flow (lpm),Sample temperature (°C),Ambient temperature (°C),ASC tube jacket temperature (°C),LED temperature (°C),Box temperature (°C),Sample RH (%),Span deviation,Mass concentration (μg/m³),Mass concentration (μg/m³),Mass concentration (μg/m³)
DateTimeUTC,F1_M11,P_M11,Q1_M11,Q2_M11,T1_M11,T2_M11,T3_M11,T4_M11,T5_M11,U1_M11,ZSPAN_M11,X2_M11,X0_M11,X1_M11
2023-05-04 14:00:00,,0826.2,5.00,0.00,28.0,26.2,00.0,36.7,29.4,18.6,0000.0,0005.22,0017.37,0003.41
2023-05-04 14:01:00,,0826.2,5.01,0.00,28.0,26.1,00.0,36.6,29.4,18.5,0000.0,0005.23,0016.62,0003.43
2023-05-04 14:02:00,,0826.2,5.01,0.00,27.9,26.1,00.0,36.6,29.4,18.5,0000.0,0005.28,0016.12,0003.47
2023-05-04 14:03:00,,0826.2,4.98,0.00,27.9,26.1,00.0,36.6,29.4,18.7,0000.0,0005.31,0016.44,0003.49
2023-05-04 14:04:00,,0826.1,4.99,0.00,27.9,26.1,00.0,36.6,29.4,18.7,0000.0,0005.38,0017.57,0003.50
2023-05-04 14:05:00,,0826.1,5.01,0.00,27.9,26.0,00.0,36.5,29.3,18.5,0000.0,0005.41,0017.50,0003.51
2023-05-04 14:06:00,,0826.2,5.01,0.00,27.8,26.0,00.0,36.5,29.3,18.5,0000.0,0005.54,0017.63,0003.54
2023-05-04 14:07:00,,0826.2,5.01,0.00,27.8,26.0,00.0,36.5,29.3,18.7,0000.0,0005.56,0017.69,0003.55
2023-05-04 14:08:00,,0826.1,5.00,0.00,27.8,26.0,00.0,36.5,29.3,18.8,0000.0,0005.51,0017.31,0003.57
2023-05-04 14:09:00,,0826.0,4.99,0.00,27.8,26.0,00.0,36.4,29.3,19.0,0000.0,0005.49,0018.34,0003.56
2023-05-04 14:10:00,,0826.0,4.99,0.00,27.7,25.9,00.0,36.4,29.2,19.0,0000.0,0005.56,0018.67,0003.58
2023-05-04 14:11:00,,0826.0,5.00,0.00,27.7,25.9,00.0,36.4,29.2,19.0,0000.0,0005.69,0018.81,0003.60
2023-05-04 14:12:00,,0826.0,5.00,0.00,27.7,25.8,00.0,36.3,29.2,18.9,0000.0,0005.72,0019.59,0003.60
2023-05-04 14:13:00,,0826.0,5.00,0.00,27.7,25.8,00.0,36.3,29.1,18.7,0000.0,0005.72,0020.43,0003.58
2023-05-04 14:14:00,,0826.0,5.00,0.00,27.6,25.8,00.0,36.3,29.1,18.7,0000.0,0005.81,0021.52,0003.59
2023-05-04 14:15:00,,0826.1,5.00,0.00,27.6,25.8,00.0,36.3,29.1,18.8,0000.0,0005.78,0021.00,0003.59
2023-05-04 14:16:00,,0826.2,5.00,0.00,27.6,25.8,00.0,36.3,29.1,18.8,0000.0,0005.79,0021.40,0003.59
2023-05-04 14:17:00,,0826.2,4.99,0.00,27.6,25.8,00.0,36.2,29.1,19.2,0000.0,0005.71,0021.34,0003.56
2023-05-04 14:18:00,,0826.1,4.99,0.00,27.6,25.8,00.0,36.2,29.1,18.9,0000.0,0005.73,0020.80,0003.56
2023-05-04 14:19:00,,0826.1,4.99,0.00,27.5,25.8,00.0,36.2,29.1,18.8,0000.0,0005.77,0021.08,0003.55
2023-05-04 14:20:00,,0826.0,4.99,0.00,27.5,25.8,00.0,36.2,29.0,18.5,0000.0,0005.78,0020.26,0003.54
2023-05-04 14:21:00,,0826.1,5.00,0.00,27.5,25.8,00.0,36.2,29.0,18.3,0000.0,0005.68,0019.19,0003.52
2023-05-04 14:22:00,,0826.1,5.00,0.00,27.5,25.8,00.0,36.1,29.0,17.9,0000.0,0005.60,0018.82,0003.49
2023-05-04 14:23:00,,0826.2,5.00,0.00,27.5,25.7,00.0,36.1,29.0,17.9,0000.0,0005.54,0019.45,0003.47
2023-05-04 14:24:00,,0826.2,5.00,0.00,27.4,25.6,00.0,36.1,28.9,18.1,0000.0,0005.49,0020.52,0003.46
2023-05-04 14:25:00,,0826.0,5.00,0.00,27.4,25.6,00.0,36.1,28.9,18.1,0000.0,0005.42,0020.35,0003.45
2023-05-04 14:26:00,,0825.9,4.99,0.00,27.4,25.5,00.0,36.0,28.8,18.0,0000.0,0005.43,0020.13,0003.44
2023-05-04 14:27:00,,0825.9,5.00,0.00,27.3,25.5,00.0,36.0,28.8,18.0,0000.0,0005.37,0020.09,0003.43
2023-05-04 14:28:00,,0826.0,5.00,0.00,27.3,25.5,00.0,36.0,28.9,17.9,0000.0,0005.29,0020.36,0003.42
2023-05-04 14:29:00,,0826.0,5.00,0.00,27.3,25.5,00.0,36.0,28.9,18.4,0000.0,0005.24,0019.90,0003.42
2023-05-04 14:30:00,,0826.0,5.00,0.00,27.3,25.5,00.0,36.0,28.8,18.3,0000.0,0005.30,0019.63,0003.44
2023-05-04 14:31:00,,0826.0,5.00,0.00,27.3,25.4,00.0,35.9,28.8,18.0,0000.0,0005.33,0019.42,0003.45
2023-05-04 14:32:00,,0826.0,5.00,0.00,27.2,25.4,00.0,35.9,28.7,18.2,0000.0,0005.35,0020.23,0003.45
2023-05-04 14:33:00,,0826.0,5.00,0.00,27.2,25.4,00.0,35.9,28.7,18.4,0000.0,0005.35,0020.40,0003.44
2023-05-04 14:34:00,,0825.9,5.00,0.00,27.2,25.4,00.0,35.9,28.7,18.5,0000.0,0005.36,0019.55,0003.46
2023-05-04 14:35:00,,0825.8,5.00,0.00,27.2,25.5,00.0,35.8,28.7,18.3,0000.0,0005.40,0018.66,0003.46
2023-05-04 14:36:00,,0825.9,5.00,0.00,27.2,25.5,00.0,35.8,28.7,18.4,0000.0,0005.37,0017.60,0003.47
2023-05-04 14:37:00,,0825.9,5.00,0.00,27.2,25.5,00.0,35.8,28.7,19.1,0000.0,0005.32,0017.32,0003.47
2023-05-04 14:38:00,,0825.9,5.00,0.00,27.2,25.5,00.0,35.8,28.8,19.4,0000.0,0005.35,0016.89,0003.46
2023-05-04 14:39:00,,0825.8,4.99,0.00,27.2,25.6,00.0,35.8,28.8,19.2,0000.0,0005.40,0016.85,0003.47
2023-05-04 14:40:00,,0825.7,5.00,0.00,27.2,25.6,00.0,35.8,28.8,19.0,0000.0,0005.46,0017.01,0003.48
2023-05-04 14:41:00,,0825.8,5.00,0.00,27.2,25.6,00.0,35.8,28.8,19.2,0000.0,0005.40,0017.79,0003.47
2023-05-04 14:42:00,,0825.9,5.00,0.00,27.2,25.6,00.0,35.7,28.8,19.3,0000.0,0005.41,0017.70,0003.47
2023-05-04 14:43:00,,0825.9,5.00,0.00,27.2,25.6,00.0,35.7,28.8,19.3,0000.0,0005.38,0017.36,0003.46
2023-05-04 14:44:00,,0825.9,5.00,0.00,27.2,25.6,00.0,35.7,28.8,19.6,0000.0,0005.36,0017.20,0003.47
2023-05-04 14:45:00,,0826.0,5.01,0.00,27.2,25.6,00.0,35.7,28.8,19.5,0000.0,0005.37,0017.37,0003.48
2023-05-04 14:46:00,,0825.9,5.00,0.00,27.2,25.6,00.0,35.7,28.9,19.3,0000.0,0005.34,0016.99,0003.48
2023-05-04 14:47:00,,0825.8,5.01,0.00,27.3,25.7,00.0,35.7,28.9,18.3,0000.0,0005.37,0017.23,0003.48
2023-05-04 14:48:00,,0825.9,5.00,0.00,27.3,25.7,00.0,35.7,29.0,18.3,0000.0,0005.36,0017.29,0003.47
2023-05-04 14:49:00,,0825.9,5.01,0.00,27.3,25.8,00.0,35.7,29.0,18.2,0000.0,0005.36,0018.24,0003.47
2023-05-04 14:50:00,,0825.9,5.01,0.00,27.3,25.8,00.0,35.7,29.0,18.4,0000.0,0005.42,0018.29,0003.48
2023-05-04 14:51:00,,0825.9,5.00,0.00,27.4,25.9,00.0,35.7,29.0,18.2,0000.0,0005.39,0017.54,0003.47
2023-05-04 14:52:00,,0825.9,5.00,0.00,27.4,26.0,00.0,35.8,29.0,17.9,0000.0,0005.35,0016.36,0003.46
2023-05-04 14:53:00,,0825.9,5.00,0.00,27.4,26.0,00.0,35.8,29.0,17.7,0000.0,0005.33,0015.59,0003.45
2023-05-04 14:54:00,,0825.9,5.00,0.00,27.4,26.0,00.0,35.8,29.0,18.0,0000.0,0005.29,0015.21,0003.44
2023-05-04 14:55:00,,0825.9,5.01,0.00,27.4,26.0,00.0,35.8,29.0,18.6,0000.0,0005.29,0015.71,0003.43
2023-05-04 14:56:00,,0826.0,5.00,0.00,27.5,26.1,00.0,35.8,29.0,19.7,0000.0,0005.25,0015.74,0003.42
2023-05-04 14:57:00,,0826.0,4.98,0.00,27.5,26.1,00.0,35.8,29.0,22.1,0000.0,0005.29,0015.73,0003.42
2023-05-04 14:58:00,,0826.0,4.99,0.00,27.5,26.2,00.0,35.8,29.1,21.4,0000.0,0005.28,0015.11,0003.42
2023-05-04 14:59:00,,0825.9,5.01,0.00,27.5,26.2,00.0,35.8,29.1,20.6,0000.0,0005.27,0014.50,0003.43
